Weather History for Fairfield, IL

Change the Weather History Date:

Monday, October 29, 2012

  Actual Average (KMVN) Record (KMVN)
Temperature  
Mean Temperature 44 °F -  
Max Temperature 53 °F 61 °F 78 °F (1999)
Min Temperature 35 °F 41 °F 23 °F (2010)
Degree Days  
Heating Degree Days 21    
Moisture  
Dew Point 31 °F    
Average Humidity 63    
Maximum Humidity 87    
Minimum Humidity 35    
Precipitation  
Precipitation 0.00 in - - ()
Sea Level Pressure  
Sea Level Pressure 30.17 in    
Wind  
Wind Speed 9 mph (NNW)    
Max Wind Speed 18 mph    
Max Gust Speed 28 mph    
Visibility 10 miles    
Events      
Averages and records for this station are not official NWS values.
T = Trace of Precipitation, MM = Missing Value Source: NWS Daily Summary

Daily Weather History Graph

Daily Weather History Graph

Search for Another Location

Airport:

Trip Planner

Search our weather history database for the weather conditions in past years. The results will help you decide how hot, cold, wet, or windy it might be!

Date:

Astronomy

Oct. 29, 2012 Rise Set
Actual Time 7:17 AM CDT 5:56 PM CDT
Civil Twilight 6:50 AM CDT 6:24 PM CDT
Nautical Twilight 6:18 AM CDT 6:55 PM CDT
Astronomical Twilight 5:48 AM CDT 7:25 PM CDT
Moon 5:49 PM CDT (10/29) 7:07 AM CDT (10/29)
Length of Visible Light 11h 34m
Length of Day
10h 39m
Full, 100% of the Moon is Illuminated
Oct 29
Full
Oct 29
Full
Nov 6
Last Quarter
Nov 13
New
Nov 20
First Quarter

Hourly Weather History & Observations

Time (CDT) Temp. Windchill Dew Point Humidity Pressure Visibility Wind Dir Wind Speed Gust Speed Precip Events Conditions
12:15 AM 39.2 °F 33.0 °F 32.0 °F 75% 30.21 in 10.0 mi North 9.2 mph - N/A   Clear
12:35 AM 39.2 °F 34.2 °F 32.0 °F 75% 30.21 in 10.0 mi North 6.9 mph - N/A   Clear
12:55 AM 39.2 °F 35.0 °F 32.0 °F 75% 30.21 in 10.0 mi NNW 5.8 mph - N/A   Clear
1:15 AM 37.4 °F 31.4 °F 32.0 °F 81% 30.21 in 10.0 mi NNW 8.1 mph - N/A   Clear
1:35 AM 37.4 °F 30.8 °F 32.0 °F 81% 30.21 in 10.0 mi NNW 9.2 mph - N/A   Clear
1:55 AM 37.4 °F 31.4 °F 32.0 °F 81% 30.21 in 10.0 mi NNW 8.1 mph - N/A   Clear
2:15 AM 37.4 °F 30.8 °F 32.0 °F 81% 30.21 in 10.0 mi North 9.2 mph - N/A   Clear
2:35 AM 37.4 °F 31.4 °F 32.0 °F 81% 30.21 in 10.0 mi NNW 8.1 mph - N/A   Clear
2:55 AM 37.4 °F 32.1 °F 32.0 °F 81% 30.20 in 10.0 mi North 6.9 mph - N/A   Clear
3:15 AM 37.4 °F 33.8 °F 33.8 °F 87% 30.20 in 10.0 mi NNW 4.6 mph - N/A   Scattered Clouds
3:35 AM 37.4 °F 32.1 °F 33.8 °F 87% 30.20 in 10.0 mi North 6.9 mph - N/A   Mostly Cloudy
3:55 AM 37.4 °F 32.1 °F 33.8 °F 87% 30.20 in 10.0 mi NNW 6.9 mph - N/A   Scattered Clouds
4:15 AM 37.4 °F 32.8 °F 33.8 °F 87% 30.20 in 10.0 mi NNW 5.8 mph - N/A   Clear
4:35 AM 37.4 °F 32.1 °F 33.8 °F 87% 30.20 in 10.0 mi North 6.9 mph - N/A   Clear
4:55 AM 37.4 °F 30.8 °F 33.8 °F 87% 30.21 in 10.0 mi North 9.2 mph - N/A   Clear
5:15 AM 37.4 °F 32.1 °F 33.8 °F 87% 30.21 in 10.0 mi NNW 6.9 mph - N/A   Clear
5:35 AM 37.4 °F 31.4 °F 33.8 °F 87% 30.21 in 10.0 mi North 8.1 mph - N/A   Clear
5:55 AM 35.6 °F 29.2 °F 32.0 °F 87% 30.22 in 10.0 mi North 8.1 mph - N/A   Clear
6:15 AM 35.6 °F 29.2 °F 32.0 °F 87% 30.22 in 10.0 mi NNW 8.1 mph - N/A   Clear
6:35 AM 35.6 °F 29.2 °F 32.0 °F 87% 30.22 in 10.0 mi NNW 8.1 mph - N/A   Clear
7:15 AM 35.6 °F 28.6 °F 32.0 °F 87% 30.23 in 10.0 mi North 9.2 mph - N/A   Clear
7:35 AM 35.6 °F 29.9 °F 32.0 °F 87% 30.23 in 10.0 mi NNW 6.9 mph - N/A   Clear
7:55 AM 35.6 °F 29.2 °F 32.0 °F 87% 30.23 in 10.0 mi NNW 8.1 mph - N/A   Clear
8:15 AM 37.4 °F 31.4 °F 33.8 °F 87% 30.24 in 10.0 mi North 8.1 mph - N/A   Clear
8:35 AM 37.4 °F 31.4 °F 33.8 °F 87% 30.24 in 10.0 mi NNW 8.1 mph - N/A   Clear
8:55 AM 39.2 °F 33.0 °F 33.8 °F 81% 30.24 in 10.0 mi NNW 9.2 mph - N/A   Clear
9:15 AM 39.2 °F 33.6 °F 33.8 °F 81% 30.24 in 10.0 mi NNW 8.1 mph - N/A   Clear
9:35 AM 42.8 °F 38.6 °F 35.6 °F 76% 30.24 in 10.0 mi NNW 6.9 mph - N/A   Clear
9:55 AM 42.8 °F 38.0 °F 35.6 °F 76% 30.24 in 10.0 mi NNW 8.1 mph - N/A   Clear
10:15 AM 44.6 °F 38.4 °F 35.6 °F 71% 30.24 in 10.0 mi North 12.7 mph 17.3 mph N/A   Clear
10:35 AM 46.4 °F 41.1 °F 35.6 °F 66% 30.24 in 10.0 mi NNW 11.5 mph 18.4 mph N/A   Clear
10:55 AM 48.2 °F - 35.6 °F 62% 30.24 in 10.0 mi NNW 12.7 mph 18.4 mph N/A   Clear
11:15 AM 48.2 °F - 35.6 °F 62% 30.24 in 10.0 mi North 15.0 mph 20.7 mph N/A   Clear
11:35 AM 50.0 °F - 35.6 °F 58% 30.23 in 10.0 mi North 12.7 mph 20.7 mph N/A   Clear
11:55 AM 50.0 °F - 33.8 °F 54% 30.22 in 10.0 mi North 16.1 mph 24.2 mph N/A   Clear
12:15 PM 51.8 °F - 33.8 °F 50% 30.21 in 10.0 mi North 11.5 mph 26.5 mph N/A   Clear
12:35 PM 51.8 °F - 32.0 °F 47% 30.20 in 10.0 mi North 18.4 mph 24.2 mph N/A   Clear
12:55 PM 51.8 °F - 32.0 °F 47% 30.19 in 10.0 mi North 18.4 mph 24.2 mph N/A   Clear
1:15 PM 53.6 °F - 30.2 °F 41% 30.18 in 10.0 mi North 18.4 mph 27.6 mph N/A   Clear
1:35 PM 53.6 °F - 30.2 °F 41% 30.17 in 10.0 mi North 16.1 mph 24.2 mph N/A   Clear
1:55 PM 53.6 °F - 28.4 °F 38% 30.16 in 10.0 mi North 15.0 mph 20.7 mph N/A   Clear
2:15 PM 53.6 °F - 26.6 °F 35% 30.15 in 10.0 mi North 15.0 mph - N/A   Clear
2:35 PM 53.6 °F - 28.4 °F 38% 30.14 in 10.0 mi North 13.8 mph 19.6 mph N/A   Clear
2:55 PM 53.6 °F - 28.4 °F 38% 30.14 in 10.0 mi North 12.7 mph 19.6 mph N/A   Clear
3:15 PM 53.6 °F - 26.6 °F 35% 30.13 in 10.0 mi North 13.8 mph 20.7 mph N/A   Clear
3:35 PM 53.6 °F - 26.6 °F 35% 30.13 in 10.0 mi North 16.1 mph 25.3 mph N/A   Clear
3:55 PM 53.6 °F - 26.6 °F 35% 30.13 in 10.0 mi North 15.0 mph 23.0 mph N/A   Clear
4:15 PM 53.6 °F - 26.6 °F 35% 30.12 in 10.0 mi North 15.0 mph 23.0 mph N/A   Clear
4:35 PM 53.6 °F - 28.4 °F 38% 30.12 in 10.0 mi North 12.7 mph 19.6 mph N/A   Clear
4:55 PM 53.6 °F - 26.6 °F 35% 30.12 in 10.0 mi North 12.7 mph 20.7 mph N/A   Clear
5:15 PM 51.8 °F - 26.6 °F 38% 30.11 in 10.0 mi NNW 10.4 mph 17.3 mph N/A   Clear
5:35 PM 51.8 °F - 26.6 °F 38% 30.11 in 10.0 mi North 8.1 mph 17.3 mph N/A   Clear
5:55 PM 50.0 °F - 26.6 °F 40% 30.11 in 10.0 mi NNW 5.8 mph - N/A   Clear
6:15 PM 48.2 °F - 26.6 °F 43% 30.10 in 10.0 mi NNW 8.1 mph - N/A   Clear
6:35 PM 48.2 °F - 26.6 °F 43% 30.10 in 10.0 mi NNW 5.8 mph - N/A   Clear
6:55 PM 46.4 °F 44.3 °F 28.4 °F 50% 30.09 in 10.0 mi NNW 4.6 mph - N/A   Clear
7:15 PM 46.4 °F 44.3 °F 28.4 °F 50% 30.09 in 10.0 mi NW 4.6 mph - N/A   Clear
7:35 PM 46.4 °F 44.3 °F 28.4 °F 50% 30.09 in 10.0 mi NNW 4.6 mph - N/A   Clear
7:55 PM 46.4 °F 45.2 °F 28.4 °F 50% 30.09 in 10.0 mi NW 3.5 mph - N/A   Clear
10:35 PM 44.6 °F 39.7 °F 26.6 °F 49% 30.06 in 10.0 mi NNW 9.2 mph - N/A   Clear
10:55 PM 44.6 °F 40.2 °F 26.6 °F 49% 30.05 in 10.0 mi NNW 8.1 mph - N/A   Clear
11:15 PM 44.6 °F 40.7 °F 26.6 °F 49% 30.05 in 10.0 mi NNW 6.9 mph - N/A   Clear
11:35 PM 44.6 °F 41.4 °F 26.6 °F 49% 30.03 in 10.0 mi NNW 5.8 mph - N/A   Clear
11:55 PM 44.6 °F 41.4 °F 26.6 °F 49% 30.03 in 10.0 mi NNW 5.8 mph - N/A   Clear